Regional Weather Roundup
Issued by NWS

Home | Current Version | Previous Version | Text Only | Print | Product List | Glossary Off
Versions: 1 2 3 4 5 6 7 8 9 10 11 12 13 14 15 16 17 18 19 20 21 22 23 24 25 26 27 28 29 30 31 32 33 34 35 36 37 38 39 40 41 42 43 44 45 46 47 48 49 50

000
ASUS43 KLMK 272102
RWRKY
KENTUCKY REGIONAL WEATHER ROUNDUP
NATIONAL WEATHER SERVICE LOUISVILLE KY
500 PM EDT THU APR 27 2017

NOTE "FAIR" INDICATES FEW OR NO CLOUDS BELOW 12,000 FEET
WITH NO SIGNIFICANT WEATHER AND/OR OBSTRUCTIONS TO VISIBILITY.

KYZ001>023-026-027-061>063-070>075-272200-
WESTERN AND SOUTH CENTRAL KENTUCKY

CITY           SKY/WX    TMP DP  RH WIND       PRES   REMARKS
PADUCAH        CLOUDY    60  47  61 SW8       29.83R
HENDERSON      CLOUDY    59  49  69 SW13      29.82R
OWENSBORO      CLOUDY    60  49  66 W9        29.82R
HOPKINSVILLE   MOSUNNY   62  50  63 W9        29.83R
BOWLING GREEN  MOSUNNY   64  51  62 W10       29.82S
GLASGOW        NOT AVBL
$$

KYZ024-025-028>034-038-045-046-053-272200-
NORTH CENTRAL KENTUCKY

CITY           SKY/WX    TMP DP  RH WIND       PRES   REMARKS
LOUISVILLE/SDF PTSUNNY   64  49  57 W13       29.80R
LOUISVILLE/LOU PTSUNNY   63  50  62 W13       29.80S
FORT KNOX      MOSUNNY   61  48  61 SW17      29.79S
$$

KYZ035>037-039>044-047>052-055>060-089>105-272200-
NORTHEAST KENTUCKY

CITY           SKY/WX    TMP DP  RH WIND       PRES   REMARKS
LEXINGTON      MOSUNNY   68  52  56 W14G28    29.78R
COVINGTON      PTSUNNY   62  49  62 W16G24    29.77R
FRANKFORT      PTSUNNY   65  49  56 W12G21    29.77R
$$

KYZ054-064>069-076>088-106>120-272200-
SOUTHEAST KENTUCKY

CITY           SKY/WX    TMP DP  RH WIND       PRES   REMARKS
JACKSON        MOSUNNY   77  55  46 W8        29.73F
LONDON         SUNNY     77  49  37 W15G22    29.75R
SOMERSET       NOT AVBL
MIDDLESBORO    CLOUDY    75  62  62 S13       29.76S
MONTICELLO     PTCLDY    74  55  51 W20G28    29.79R
$$




USA.gov is the U.S. government's official web portal to all federal, state and local government web resources and services.